Weather in Meiringen

Switzerland     46°43′38″N   8°11′14″E
В апреле 2022 года жителям России запретили посещать сайт meteo.paraplan.net по решению Генеральной прокуратуры. Аудитория сайта уменьшилась в 10 раз. Владельцы сайта не видят смысла в поддержке погодного сервера в таких условиях. Сайт будет закрыт в октябре.
temp.,
°C
wind,
m/s
gust,
m/s
humid.,
%
clouds,
%
prec.,
mm/h
press.,
hPa
HPBL,
m
25 september, sun
sun2523:00+4sse119375 0.4 101498
02:00+4sse228755 0.1 101475
05:00+5se1190100 0.1 101261
08:00+5nne0193100 0.4 1012160
11:00+5nnw119393 0.3 1013327
14:00+5nw2299100 1.2 1013321
17:00+5nw2296100 1.9 1013265
20:00+4wnw1198100 2.4 1014102
26 september, mon
mon2623:00+3sw1298100 3.8 1016158
02:00+3ssw229354 4.3 1015107
05:00+2ssw229136 0.0 101361
08:00+3wsw119199 0.0 1012106
11:00+4nw119285 0.1 1011343
14:00+4nw229398 0.4 1009406
17:00+4wnw1296100 0.8 1008302
20:00+3wsw1297100 1.9 1008142
27 september, tue
tue2723:00+3s3393100 0.8 1007150
02:00+3ssw2292100 1.5 100673
05:00+1w239992 2.7 1007106
08:000w2299100 6.9 1009226
11:00+1nw22100100 1.3 1009205
14:00+2nw229699 1.5 1009365
17:00+3wnw2291100 0.3 1008467
20:00+2wsw129787 0.5 100987
28 september, wed
wed2823:00+1ssw2293100 0.1 100947
02:00+2s3285100 0.1 100642
05:00+3sse3388100 0.3 100269
08:00+4sse4492100 2.7 100193
11:00+4s3395100 4.1 1001144
14:00+5sse119497 7.2 1001177
17:00+6nnw1195100 0.9 1000124
20:00+5wnw11100100 3.6 100195
29 september, thu
thu2923:00+3n33100100 5.4 1004420
02:00+1ese11100100 9.1 1006132
05:00+1sse0199100 1.3 100582
08:00+2wnw0199100 2.0 1005107
11:00+3n1199100 0.3 1005275
14:00+3n21100100 0.4 1006201
17:00+2n11100100 0.4 1007206
20:00+2nne11100100 1.8 1009171